Regional Weather Roundup
Issued by NWS

Home | Current Version | Previous Version | Graphics & Text | Print | Product List | Glossary On
Versions: 1 2 3 4 5 6 7 8 9 10 11 12 13 14 15 16 17 18 19 20 21 22 23 24 25 26 27 28 29 30 31 32 33 34 35 36 37 38 39 40 41 42 43 44 45 46 47 48 49 50
000
ASUS43 KOAX 292002
RWRNE

WEATHER ROUNDUP FOR NEBRASKA
NATIONAL WEATHER SERVICE OMAHA NE
300 PM CDT FRI APR 29 2016

NOTES: SATELLITE DATA IS BEING USED TO AUGMENT CLOUD COVER ABOVE
       12000 FEET.
       "FAIR" INDICATES FEW OR NO CLOUDS BELOW 12,000 FEET WITH NO
       SIGNIFICANT WEATHER AND/OR OBSTRUCTIONS TO VISIBILITY.

  * THESE STATIONS DO NOT REPORT WEATHER SUCH AS RAIN...SNOW OR FOG.

NEZ001>004-019>022-054>056-292100-
NEBRASKA PANHANDLE

CITY           SKY/WX    TMP DP  RH WIND       PRES   REMARKS
SCOTTSBLUFF    CLOUDY    46  34  62 NE14      29.97F
ALLIANCE       CLOUDY    41  35  79 NE14      29.98F
CHADRON        CLOUDY    43  36  76 NE10      30.04F
KIMBALL        LGT RAIN  36  35  96 E10       29.97S WCI  29
SIDNEY         RAIN      36  34  92 E13       29.98R FOG     WCI  27
$$

NEZ057>060-069>072-079>082-292100-
SOUTHWEST NEBRASKA

CITY           SKY/WX    TMP DP  RH WIND       PRES   REMARKS
NORTH PLATTE   CLOUDY    43  36  76 E17       29.97F
IMPERIAL       LGT RAIN  41  38  89 NE14      29.94F
LEXINGTON      CLOUDY    43  38  82 NE13      29.99F
MCCOOK         CLOUDY    43  38  82 E24       29.90F
$$

NEZ005>010-023>029-035>040-094-292100-
NORTH CENTRAL NEBRASKA

CITY           SKY/WX    TMP DP  RH WIND       PRES   REMARKS
VALENTINE      CLOUDY    40  38  93 E13       30.06F FOG     WCI  32
AINSWORTH      CLOUDY    40  38  93 E9        30.06F WCI  34
BROKEN BOW     LGT RAIN  43  39  86 NE14      30.00F
O`NEILL        CLOUDY    44  40  88 NE6       30.08F
ORD            CLOUDY    45  38  76 NE10      30.03F
$$

NEZ041-046>049-061>064-073>077-083>087-292100-
SOUTH CENTRAL NEBRASKA

CITY           SKY/WX    TMP DP  RH WIND       PRES   REMARKS
GRAND ISLAND   CLOUDY    45  39  79 NE13      30.03F
AURORA         CLOUDY    46  41  84 NE16      30.03R
HASTINGS       CLOUDY    44  39  82 NE15      30.01R
KEARNEY *      CLOUDY    45  37  76 NE15      30.00F
YORK           CLOUDY    46  39  76 NE15      30.04R
$$

NEZ011>018-030>034-042>045-292100-
NORTHEAST NEBRASKA

CITY           SKY/WX    TMP DP  RH WIND       PRES   REMARKS
NORFOLK        CLOUDY    45  39  79 NE9       30.07F
ALBION         CLOUDY    45  39  81 NE9       30.06F
BLAIR          CLOUDY    46  42  83 NE10      30.05F
COLUMBUS *     CLOUDY    45  36  70 NE13      30.06S
FREMONT        CLOUDY    46  40  81 NE8       30.06F
TEKAMAH        CLOUDY    48  42  80 E13       30.08F
$$

NEZ050>053-065>068-078-088>093-292100-
SOUTHEAST NEBRASKA

CITY           SKY/WX    TMP DP  RH WIND       PRES   REMARKS
LINCOLN        CLOUDY    48  40  73 NE13      30.05F
OMAHA EPPLEY   CLOUDY    48  41  76 NE14      30.05F
BEATRICE       CLOUDY    47  41  79 NE9G18    30.01F
FALLS CITY     CLOUDY    52  45  77 NE13      29.99F
NEBRASKA CITY  CLOUDY    49  42  77 E14       30.01F
$$

NEZ044-045-051>053-067-292100-
OMAHA AREA

CITY           SKY/WX    TMP DP  RH WIND       PRES   REMARKS
OMAHA EPPLEY   CLOUDY    48  41  76 NE14      30.05F
BLAIR          CLOUDY    46  42  83 NE10      30.05F
FREMONT        CLOUDY    46  40  81 NE8       30.06F
WAHOO          CLOUDY    46  41  82 NE14      30.05S
$$




USA.gov is the U.S. government's official web portal to all federal, state and local government web resources and services.